{"data":{"norad_id":66418,"epoch":"2026-05-25T00:48:07.215840Z","epoch_age_seconds":68294,"freshness":"FRESH","line1":"1 66418U 25258G   26145.03341685 -.00000088  00000+0  77331-4 0  9996","line2":"2 66418  50.0032  18.4728 0000968  53.5445 306.5516 13.29319608 26653","mean_motion":13.29319608,"eccentricity":9.68e-5,"inclination_deg":50.0032,"raan_deg":18.4728,"arg_perigee_deg":53.5445,"mean_anomaly_deg":306.5516,"bstar":7.7331e-5,"rev_number":2665,"period_min":108.32609338897,"perigee_km":1148.60204331,"apogee_km":1150.0593610571,"semimajor_km":7527.4677021835,"source":"CELESTRAK","updated_at":"2026-05-25T13:38:06.206903Z"}}